[[{"header":{"parameterUnit":"m.s-1","parameterCategory":1,"la1":30.2991,"la2":30.254,"lo1":-89.0895,"lo2":-89.0444,"dy":0.0017,"dx":0.0017,"nx":28,"ny":28,"refTime":"2023-08-10T03:00:00:Z","depth":0,"parameterNumber":2,"parameterNumberName":"U-component_of_WINDS"},"data":[0,0,0,0,0,0,0,0,0,0,0,0,0,0,0,0,0,0,0,0,0,0,0,0,0,0,0,0,0,0,0,0,0,0,0,0,0,0,0,0,0,0,0,0,0,0,0,0,0,0,0,0,0,0,0,0,0,0,1.112,1.1122,0,1.1251,1.1252,1.1254,1.1222,1.122,1.1217,1.1215,1.1353,1.1359,1.1365,0,0,0,0,0,0,0,0,0,0,0,0,0,1.0849,1.0854,1.112,1.1122,1.1124,1.1251,1.1252,1.1254,1.1223,1.122,1.1217,1.1214,1.1351,1.1358,1.1366,0,0,0,0,0,0,0,0,0,0,0,0,0,1.0972,1.0855,1.112,1.1123,1.1125,1.125,1.1252,1.1255,1.1224,1.122,1.1216,1.1212,1.1349,1.1358,1.1367,1.1499,0,0,1.1394,1.1398,0,0,0,0,0,0,0,0,1.0965,1.0982,1.1121,1.1123,1.1125,1.1216,1.1207,1.1337,1.1224,1.1186,1.1215,1.1211,1.1311,1.1323,1.1356,1.1505,1.1511,1.1395,1.1401,1.1405,1.1407,0,0,0,0,0,0,0,1.0956,1.0976,1.1172,1.1123,1.1126,1.112,1.1133,1.1232,1.1269,1.1189,1.1187,1.1203,1.1312,1.1347,1.1359,1.1513,1.1395,1.1403,1.1409,1.1412,1.1778,1.1782,0,0,0,0,0,0,1.0945,1.0969,1.1168,1.1176,1.1034,1.1127,1.1142,1.1191,1.1267,1.1275,1.1206,1.1201,1.1334,1.1349,1.1364,1.1525,1.1405,1.1413,1.1418,1.1774,1.1779,1.1784,0,0,0,0,0,0,1.094,1.0963,1.1163,1.1072,1.1097,1.1136,1.1191,1.1196,1.1231,1.128,1.1287,1.1236,1.1331,1.1351,1.1465,1.1529,1.1417,1.1425,1.1769,1.1776,1.1782,1.1846,0,0,0,0,0,0,1.0932,1.0962,1.1011,1.1073,1.1102,1.1261,1.1195,1.1201,1.1246,1.1241,1.1309,1.1317,1.133,1.1452,1.1474,1.1539,1.1432,1.1764,1.1772,1.178,1.1839,1.1854,1.1867,0,0,0,0,0,1.0922,1.1025,1.1014,1.1038,1.1164,1.1265,1.1281,1.1292,1.1252,1.1303,1.1334,1.1315,1.1518,1.1464,1.1489,1.1558,1.176,1.177,1.1779,1.1832,1.1851,1.1867,0,0,0,0,0,0,1.0971,1.1033,1.1021,1.1147,1.12,1.1259,1.1324,1.1312,1.1379,1.1372,1.1384,1.14,1.1517,1.1548,1.1487,1.169,1.1633,1.1648,1.1665,1.1683,1.1697,1.1688,1.144,0,0,0,0,0,1.0995,1.107,1.1121,1.1227,1.1254,1.1284,1.1328,1.1332,1.1389,1.1412,1.1452,1.1509,1.1585,1.1636,1.1709,1.1842,1.1858,1.1902,1.1916,1.1928,1.1941,1.2016,1.2036,1.1816,1.1816,1.1815,0,0,1.1048,1.1092,1.1138,1.1238,1.128,1.1359,1.1304,1.1389,1.1448,1.1426,1.1536,1.1567,1.1632,1.1756,1.1813,1.1786,1.2005,1.194,1.1949,1.1956,1.2028,1.2049,1.2067,1.1822,1.1821,1.182,0,0,1.1185,1.1225,1.1318,1.1361,1.1424,1.1444,1.1466,1.1527,1.1546,1.1656,1.1641,1.1712,1.1843,1.1891,1.1932,1.2086,1.2072,1.211,1.2185,1.2258,1.2275,1.2291,1.2348,1.2368,1.2122,1.2123,1.2123,0,1.1244,1.136,1.1367,1.1454,1.1499,1.148,1.1576,1.1617,1.1703,1.1735,1.1703,1.1868,1.191,1.2046,1.2083,1.2117,1.2144,1.2103,1.2272,1.2287,1.2302,1.2356,1.2378,1.2127,1.2126,1.2126,1.2126,0,1.1429,1.1511,1.1578,1.166,1.1712,1.1803,1.1825,1.1877,1.1877,1.19,1.2013,1.2063,1.2146,1.2178,1.2179,1.2315,1.2297,1.2268,1.2212,1.2327,1.2379,1.2399,1.2133,1.2132,1.213,1.2129,0,0,1.1602,1.1685,1.171,1.1747,1.1816,1.188,1.197,1.205,1.2096,1.2155,1.2232,1.2344,1.2318,1.2364,1.237,1.2433,1.2554,1.2397,1.2399,1.2426,1.271,1.2732,1.2756,1.2544,1.2548,1.2552,1.2705,0,1.1746,1.1904,1.1913,1.2057,1.2133,1.2116,1.2195,1.2247,1.2271,1.234,1.2367,1.2446,1.2405,1.2433,1.2495,1.2527,1.2612,1.2515,1.2619,1.2622,1.2605,1.2783,1.2807,1.2949,1.2725,1.2728,1.2731,0,1.1936,1.2,1.2151,1.221,1.2242,1.2313,1.2387,1.2453,1.2512,1.2525,1.2577,1.2573,1.2668,1.2606,1.2737,1.2672,1.2714,1.2736,1.2742,1.2754,1.2685,1.2802,1.2995,1.3017,1.2762,1.276,1.2757,0,1.2049,1.2173,1.2279,1.2311,1.2382,1.2432,1.2464,1.2519,1.2567,1.2632,1.2664,1.274,1.2782,1.2841,1.2859,1.2813,1.2991,1.293,1.3006,1.3006,1.3046,1.3044,1.3251,1.307,1.307,1.307,1.3069,0,1.221,1.2304,1.2331,1.2397,1.2502,1.2512,1.2616,1.2645,1.2694,1.2766,1.2756,1.2825,1.2843,1.2915,1.2929,1.3037,1.3056,1.307,1.3074,1.3073,1.3071,1.3103,1.3094,1.3075,1.3074,1.3073,1.3072,0,1.2355,1.2376,1.2492,1.2549,1.2565,1.2641,1.269,1.2754,1.2776,1.2868,1.289,1.2926,1.301,1.3033,1.3135,1.3145,1.3272,1.3265,1.3252,1.3253,1.3328,1.3321,1.3564,1.3598,1.3393,1.3395,1.3396,0,1.2457,1.2529,1.2593,1.2641,1.2675,1.2751,1.2799,1.2812,1.2863,1.2935,1.2991,1.3074,1.3141,1.3278,1.3314,1.3392,1.3388,1.3467,1.34,1.3397,1.3391,1.3388,1.3396,1.3481,1.3483,1.3485,1.3486,0,1.2638,1.2645,1.2714,1.2788,1.2846,1.2905,1.2962,1.3001,1.3022,1.308,1.3166,1.3218,1.3321,1.3405,1.3483,1.3518,1.3507,1.3507,1.3529,1.353,1.3521,1.3529,1.3289,1.3502,1.35,1.3499,1.3498,1.3498,1.2766,1.283,1.2885,1.2963,1.3007,1.306,1.3123,1.3152,1.3224,1.3308,1.3311,1.3405,1.3463,1.3567,1.3606,1.368,1.3657,1.3688,1.3697,1.3705,1.3712,1.3507,1.3695,1.3694,1.3694,1.3693,1.3693,0,1.2948,1.2982,1.3054,1.3133,1.3195,1.3177,1.3238,1.3292,1.3374,1.3428,1.3494,1.3593,1.3674,1.3716,1.3796,1.3848,1.3845,1.3869,1.3867,1.3875,1.3728,1.3702,1.387,1.387,1.387,1.387,1.387,1.387,1.305,1.3157,1.317,1.3299,1.3333,1.3424,1.3461,1.3511,1.3554,1.3665,1.3731,1.3757,1.3807,1.3891,1.3965,1.3975,1.4006,1.4033,1.4041,1.3903,1.3885,1.3868,1.3844,1.404,1.404,1.4183,1.4184,1.4185]},{"header":{"parameterUnit":"m.s-1","parameterCategory":1,"la1":30.2991,"la2":30.254,"lo1":-89.0895,"lo2":-89.0444,"dy":0.0017,"dx":0.0017,"nx":28,"ny":28,"refTime":"2023-08-10T03:00:00:Z","depth":0,"parameterNumber":3,"parameterNumberName":"V-component_of_WINDS"},"data":[0,0,0,0,0,0,0,0,0,0,0,0,0,0,0,0,0,0,0,0,0,0,0,0,0,0,0,0,0,0,0,0,0,0,0,0,0,0,0,0,0,0,0,0,0,0,0,0,0,0,0,0,0,0,0,0,0,0,6.8757,6.8759,0,6.888,6.8882,6.8883,6.8829,6.8826,6.8823,6.882,6.8936,6.8941,6.8947,0,0,0,0,0,0,0,0,0,0,0,0,0,6.8464,6.847,6.8757,6.8759,6.876,6.888,6.8882,6.8883,6.8829,6.8826,6.8822,6.8819,6.8934,6.8941,6.8948,0,0,0,0,0,0,0,0,0,0,0,0,0,6.859,6.8472,6.8757,6.8748,6.8749,6.888,6.8882,6.8884,6.883,6.8826,6.8821,6.8817,6.8932,6.894,6.8949,6.9092,0,0,6.8976,6.8979,0,0,0,0,0,0,0,0,6.8583,6.86,6.8748,6.8749,6.875,6.8835,6.8821,6.8953,6.8831,6.8799,6.882,6.8815,6.8905,6.8916,6.8948,6.9098,6.9103,6.8976,6.8982,6.8985,6.8988,0,0,0,0,0,0,0,6.8574,6.8595,6.8805,6.875,6.8751,6.8734,6.8747,6.8846,6.8875,6.8801,6.8798,6.8814,6.8905,6.894,6.8951,6.9105,6.8976,6.8984,6.8989,6.8993,6.9376,6.9381,0,0,0,0,0,0,6.8567,6.8588,6.8802,6.8809,6.8654,6.8743,6.8758,6.8812,6.8874,6.888,6.8817,6.8811,6.8927,6.894,6.8954,6.9126,6.8985,6.8994,6.8999,6.9371,6.9377,6.9382,0,0,0,0,0,0,6.8561,6.8587,6.8797,6.8698,6.8723,6.8753,6.8814,6.8817,6.8852,6.8886,6.889,6.8849,6.8924,6.8942,6.9059,6.913,6.8998,6.9006,6.9365,6.9373,6.938,6.9472,0,0,0,0,0,0,6.8553,6.8585,6.8642,6.87,6.8729,6.8903,6.8819,6.8822,6.8869,6.8861,6.8917,6.8922,6.8922,6.9046,6.9068,6.9139,6.9012,6.9359,6.9369,6.9377,6.9463,6.9481,6.9498,0,0,0,0,0,6.8542,6.8661,6.8646,6.8672,6.8802,6.8907,6.8923,6.8924,6.8875,6.8931,6.8953,6.892,6.9118,6.9059,6.9082,6.9158,6.9355,6.9366,6.9377,6.9455,6.9478,6.9497,0,0,0,0,0,0,6.8608,6.8669,6.8652,6.8794,6.8846,6.8898,6.8969,6.8949,6.9013,6.9003,6.8998,6.9011,6.9132,6.9156,6.9089,6.9299,6.9228,6.9245,6.928,6.9302,6.9319,6.931,6.902,0,0,0,0,0,6.864,6.8724,6.877,6.8891,6.8918,6.894,6.8985,6.8982,6.9034,6.9055,6.9085,6.9134,6.9207,6.9255,6.9325,6.9465,6.9475,6.9529,6.9546,6.956,6.9574,6.9649,6.9673,6.9419,6.9419,6.9418,0,0,6.8705,6.8748,6.8801,6.8905,6.8945,6.9029,6.8958,6.9049,6.911,6.9067,6.9181,6.9204,6.9258,6.9388,6.9446,6.9411,6.9647,6.9574,6.9585,6.9592,6.9663,6.9687,6.9708,6.9426,6.9425,6.9424,0,0,6.8866,6.8909,6.9014,6.9056,6.9119,6.9132,6.9157,6.9212,6.9227,6.9341,6.931,6.938,6.9507,6.9547,6.9584,6.9759,6.9731,6.9781,6.9873,6.9945,6.9965,6.9983,7.0045,7.0067,6.9795,6.9795,6.9796,0,6.8938,6.9067,6.9069,6.9164,6.9209,6.9177,6.9281,6.932,6.9401,6.9432,6.9392,6.9551,6.9585,6.9722,6.9765,6.9796,6.9822,6.9775,6.9963,6.9981,6.9997,7.0056,7.0079,6.9801,6.98,6.98,6.9799,0,6.9152,6.9241,6.9317,6.9401,6.9454,6.9553,6.9566,6.962,6.9611,6.9627,6.9742,6.9782,6.9858,6.989,6.9881,7.0026,7.0003,6.9964,6.9892,7.0027,7.0082,7.0105,6.9809,6.9807,6.9806,6.9804,0,0,6.9359,6.9443,6.947,6.9507,6.9574,6.9641,6.9736,6.9814,6.986,6.9915,6.9994,7.0101,7.0065,7.0107,7.0102,7.0166,7.0301,7.0118,7.0119,7.015,7.0462,7.0491,7.0518,7.0282,7.0287,7.029,7.0457,0,6.9526,6.9699,6.9702,6.9859,6.994,6.9909,6.9992,7.004,7.0057,7.0125,7.0141,7.0218,7.0165,7.019,7.0252,7.0272,7.0363,7.0259,7.0352,7.0356,7.0341,7.0546,7.0578,7.0734,7.0478,7.0482,7.0485,0,6.9744,6.9811,6.9977,7.0031,7.0065,7.014,7.0211,7.0278,7.0329,7.0337,7.0384,7.0368,7.0462,7.0388,7.0515,7.0444,7.0482,7.0497,7.0503,7.0512,7.0429,7.056,7.0784,7.0807,7.0519,7.0516,7.0514,0,6.9878,7.0009,7.0125,7.0157,7.0224,7.0277,7.0306,7.0354,7.04,7.0461,7.049,7.056,7.0597,7.065,7.0652,7.0598,7.078,7.0706,7.0787,7.0787,7.0827,7.0825,7.106,7.0851,7.0851,7.085,7.085,0,7.0064,7.0167,7.0187,7.0258,7.0371,7.0372,7.0482,7.0506,7.0549,7.0621,7.0597,7.0665,7.0664,7.0732,7.0734,7.0838,7.0855,7.0862,7.0861,7.0865,7.0864,7.0889,7.0878,7.0857,7.0855,7.0854,7.0853,0,7.0234,7.0252,7.0377,7.043,7.0445,7.0526,7.0569,7.0635,7.0649,7.0742,7.0763,7.0784,7.0863,7.0871,7.0961,7.0962,7.1088,7.1075,7.1072,7.107,7.115,7.1142,7.141,7.1444,7.1214,7.1216,7.1218,0,7.0352,7.0431,7.0493,7.0542,7.0576,7.0654,7.0702,7.0704,7.0755,7.0819,7.0877,7.0954,7.1015,7.1141,7.1163,7.1231,7.122,7.1309,7.123,7.123,7.1221,7.1216,7.1223,7.1324,7.1327,7.1329,7.133,0,7.056,7.0565,7.0637,7.0713,7.0771,7.083,7.0884,7.0924,7.0933,7.099,7.1072,7.112,7.1213,7.1289,7.1356,7.1381,7.1357,7.1355,7.1377,7.1382,7.1377,7.138,7.1114,7.1349,7.1347,7.1346,7.1345,7.1344,7.0707,7.0776,7.0831,7.0911,7.0953,7.1004,7.1069,7.1093,7.1163,7.1242,7.1237,7.1327,7.1374,7.1462,7.1492,7.156,7.153,7.1562,7.157,7.1578,7.1587,7.1366,7.1572,7.1571,7.1571,7.157,7.157,0,7.0913,7.0947,7.1022,7.1101,7.1163,7.1138,7.1196,7.1249,7.133,7.1378,7.144,7.1532,7.1605,7.1633,7.1703,7.1752,7.1742,7.177,7.1766,7.1772,7.161,7.1584,7.1777,7.1777,7.1777,7.1777,7.1777,7.1776,7.1028,7.1142,7.1153,7.1287,7.1318,7.141,7.1445,7.1491,7.1529,7.1635,7.1697,7.1716,7.1754,7.1827,7.1891,7.1897,7.1923,7.1956,7.1957,7.1805,7.1784,7.1764,7.174,7.1962,7.1962,7.2114,7.2116,7.2117]}]]